Wetbulb
79.21 79.62 80.37 79.62 80.08 79.57 79.04 78.95 77.16 77.09 76.76 76.75 76.72 76.19 75.76 75.92 76.05 75.39 75.05 74.70 73.68 73.97 73.94 72.83 70.79 70.96 72.07 75.03 75.41 73.72 73.28 72.62 67.77 69.63 75.09 74.52 71.91 71.27 71.34 71.43 70.24 70.41 69.20
79.64 80.25 79.62 79.10 79.15 78.84 79.02 78.49 76.93 76.26 76.80 76.89 76.72 75.78 75.04 74.64 75.57 75.14 73.66 73.54 73.02 72.81 72.97 72.91 72.46 71.73 72.13 72.06 71.23 70.43 70.08 73.84 70.97 70.26 73.04 71.67 71.69 71.40 70.09 69.68 69.26 68.41 68.42
79.31 78.59 78.25 78.34 78.44 79.19 78.38 77.37 76.68 76.18 76.52 76.75 75.93 75.03 74.23 74.03 74.80 74.58 74.22 73.33 72.85 72.99 72.91 72.50 72.03 72.78 73.69 72.69 73.56 73.87 73.70 74.27 74.03 70.94 71.70 69.25 66.71 66.91 65.83 65.20 65.59 65.95 65.61
77.64 77.76 78.17 78.09 78.66 77.98 77.43 76.44 75.59 76.60 76.64 76.37 75.42 75.04 74.32 73.97 73.77 73.78 73.82 74.33 73.11 72.91 73.03 72.98 72.74 72.57 72.88 73.17 73.67 73.25 73.67 72.91 72.68 71.28 70.82 66.44 66.00 64.96 64.49 62.82 62.08 65.38 66.22
76.25 76.17 77.95 78.49 78.20 76.30 75.42 74.92 75.03 75.89 76.41 75.90 75.00 74.60 74.39 73.67 72.76 73.00 73.19 73.04 73.43 72.60 72.59 72.64 72.62 72.90 69.73 71.90 71.82 73.60 73.84 71.94 70.11 69.87 68.46 66.11 64.09 62.33 61.03 62.20 62.28 63.20 65.50
70.71 72.06 73.44 75.06 75.13 74.74 75.19 74.71 77.21 76.91 75.84 75.52 74.55 73.97 73.69 72.68 65.26 66.91 69.72 72.37 72.49 72.52 71.59 71.91 72.16 70.45 69.30 67.01 66.63 66.64 68.39 72.02 70.36 68.30 66.48 64.59 64.38 63.63 62.70 61.77 62.57 61.44 60.25
69.48 69.88 69.56 72.37 72.18 75.00 76.24 76.51 76.04 76.75 76.69 75.32 74.45 73.90 73.36 73.63 62.99 63.43 65.38 71.44 71.82 71.60 72.25 71.56 70.94 70.18 69.95 71.38 65.44 64.18 64.86 65.95 66.84 71.20 68.42 68.39 67.98 65.38 63.69 62.25 63.17 62.53 63.07
71.27 71.44 69.27 71.08 72.60 75.96 76.65 76.30 76.94 76.63 76.28 75.63 74.49 74.54 74.24 73.52 61.05 60.17 62.77 71.15 71.39 71.53 71.69 71.79 72.09 71.72 72.11 70.92 70.43 69.10 68.64 68.65 69.23 69.19 70.42 71.24 71.58 69.47 66.56 65.25 64.62 64.80 65.18
69.00 69.76 70.41 71.86 73.73 74.73 74.91 75.49 75.99 75.71 75.24 75.35 75.71 75.33 74.45 74.92 58.64 58.20 63.37 70.77 70.51 70.89 71.20 71.59 72.12 72.15 67.01 61.85 69.52 69.06 70.28 69.25 63.86 62.90 62.97 64.14 63.98 63.65 65.89 65.86 62.78 61.66 61.00
67.06 67.36 68.31 69.23 72.21 73.71 74.92 75.29 77.09 75.52 74.63 74.22 74.18 74.74 70.12 74.31 58.26 56.01 62.36 71.05 70.35 70.14 72.96 73.20 63.81 68.44 59.91 58.35 69.48 68.61 69.37 68.99 68.83 68.13 66.99 64.07 64.38 65.40 62.20 66.84 64.20 61.15 61.67
67.05 67.46 66.10 66.22 66.33 66.60 71.13 73.96 73.63 74.89 73.94 73.91 73.58 74.22 73.83 72.08 72.65 54.57 54.63 71.22 70.97 70.45 70.55 70.48 71.15 59.10 56.89 54.72 58.24 70.46 68.95 70.29 67.90 69.09 68.31 67.38 67.38 67.65 66.30 67.06 68.38 66.11 63.38
66.04 65.91 65.93 66.15 67.36 66.91 63.76 64.15 69.43 70.78 70.60 70.29 71.60 70.33 71.50 73.37 62.88 56.61 54.52 56.19 65.29 70.26 70.60 70.94 70.85 56.20 53.81 52.93 56.75 59.90 57.07 61.51 70.67 68.63 67.68 66.66 66.30 66.57 66.88 67.72 68.93 69.09 68.85
63.03 63.61 63.96 64.03 64.57 66.34 66.02 64.25 64.52 68.67 67.80 68.15 67.61 67.00 67.72 69.21 70.70 56.37 53.56 54.36 55.54 65.10 69.33 65.99 56.58 53.41 51.56 52.86 53.97 56.60 55.01 67.51 68.82 67.70 67.34 66.44 67.59 68.07 69.40 69.45 68.68 70.08 69.99
62.18 62.02 62.41 62.95 62.73 66.31 65.55 65.50 66.74 64.60 65.13 65.39 64.77 64.41 65.00 65.66 66.64 67.85 63.48 64.03 58.09 60.49 62.78 66.59 63.72 59.69 57.11 63.31 62.09 59.76 66.12 67.95 68.59 67.45 67.63 68.43 68.65 68.01 66.16 67.85 66.21 66.54 65.19
64.05 63.37 63.06 63.60 65.26 65.09 65.54 63.57 63.68 64.63 61.06 63.62 63.06 63.13 62.34 62.38 62.83 52.88 52.02 58.03 60.68 57.54 55.37 64.48 64.35 65.22 64.40 63.21 62.97 63.71 64.43 66.98 67.79 68.41 70.30 69.55 69.50 69.44 66.58 66.30 65.17 63.67 62.73
64.30 63.31 62.63 61.77 62.77 63.64 65.61 63.67 54.34 54.15 50.19 48.61 46.80 53.47 61.67 53.67 48.81 45.63 43.72 42.98 42.58 44.17 57.35 61.55 62.38 61.39 61.53 62.55 63.04 63.94 64.41 64.60 68.91 69.32 69.54 69.53 68.97 67.67 64.86 64.12 64.25 62.81 61.75
63.23 62.88 61.47 60.33 63.17 62.96 63.51 63.35 63.55 54.84 47.07 45.51 44.97 44.93 43.07 48.37 44.26 43.17 42.25 41.11 41.18 44.48 56.94 64.13 63.39 62.90 63.66 63.29 64.07 64.41 62.76 63.42 62.78 63.19 63.81 63.10 62.40 61.95 61.29 61.43 61.27 61.27 61.25
62.70 57.15 61.71 61.83 61.94 61.49 61.80 61.46 61.59 62.13 62.50 63.20 48.65 49.09 44.34 44.77 43.16 43.17 41.89 46.13 59.09 52.55 61.65 64.27 65.03 65.31 65.38 64.58 65.23 67.09 65.93 63.17 61.40 61.06 60.13 59.73 59.18 59.04 58.48 59.18 60.01 59.44 57.70
61.48 61.42 61.25 61.17 60.31 59.69 61.37 60.93 60.63 61.14 62.55 63.39 64.12 53.01 53.57 46.80 44.62 45.69 44.08 58.70 58.70 60.81 64.00 63.37 62.46 62.93 64.19 64.62 63.77 63.38 63.29 60.77 60.45 60.61 59.67 58.54 57.65 56.59 56.13 56.85 56.87 52.96 54.57
61.25 59.97 56.97 59.90 59.34 60.27 60.63 60.62 60.39 60.60 60.70 62.14 62.98 63.15 63.45 61.79 62.46 61.90 60.09 58.39 58.54 59.72 60.55 59.71 59.69 59.16 58.26 60.61 62.97 60.88 57.94 57.55 57.19 57.21 57.37 57.35 58.12 57.55 56.19 55.48 55.50 54.96 54.82
61.01 60.98 60.13 60.22 60.25 60.63 60.99 61.06 60.83 60.83 60.37 62.49 63.64 59.45 46.40 60.24 59.77 59.63 57.57 58.31 57.93 56.65 57.37 57.77 59.00 58.93 58.43 58.77 58.70 57.31 57.41 57.63 57.69 56.85 56.35 56.05 57.29 56.07 55.91 55.87 55.65 55.91 55.53
61.11 61.32 61.19 61.19 61.49 61.15 61.15 61.67 61.48 60.90 61.11 62.77 63.47 60.42 48.39 61.06 58.66 56.93 56.23 55.49 55.69 57.38 58.51 57.63 57.63 57.93 57.65 57.25 56.73 56.65 56.49 55.83 56.43 57.05 56.71 56.69 56.53 56.59 56.19 56.59 56.82 56.66 55.94
61.36 59.86 59.64 61.23 60.99 58.89 60.91 60.92 61.15 61.68 62.65 63.29 63.15 61.99 61.70 60.46 58.54 56.63 55.97 55.44 54.72 55.43 57.48 59.12 59.87 59.71 59.13 58.83 58.84 58.39 57.22 56.97 57.79 58.87 58.25 58.22 57.66 57.91 57.63 56.39 56.10 55.67 54.99
62.17 60.77 59.82 60.94 60.96 61.10 60.61 60.54 61.11 56.10 61.22 63.06 63.31 60.43 61.06 60.40 58.01 57.10 57.06 58.45 59.08 56.34 56.34 58.69 59.49 59.33 59.90 60.61 61.13 60.81 60.82 60.65 60.72 59.56 59.51 58.74 58.50 56.24 57.08 56.55 56.21 54.67 52.66
60.25 59.64 60.92 61.23 60.69 60.04 58.97 58.80 59.14 59.95 60.70 61.71 61.49 60.82 60.75 60.46 60.26 60.58 60.40 60.37 60.85 57.98 54.24 52.38 56.55 57.23 56.28 56.90 57.27 56.83 40.65 34.92 53.47 45.28 59.98 59.29 58.12 57.57 56.26 54.94 54.17 53.59 53.38
60.29 60.30 59.98 59.84 60.63 60.11 58.91 59.19 58.95 58.91 59.29 60.21 61.31 61.94 62.65 61.31 60.86 61.89 60.47 60.67 59.05 57.97 56.41 55.95 55.60 55.86 55.48 53.92 49.46 38.48 34.76 34.19 47.00 37.15 54.46 56.61 55.71 55.39 55.47 55.28 54.70 53.69 53.46
MSLP
1000.82 1001.61 1002.21 1002.82 1003.72 1004.45 1004.80 1005.50 1005.83 1006.15 1006.64 1006.90 1007.08 1007.20 1007.53 1008.30 1008.84 1009.52 1009.81 1009.87 1010.03 1010.32 1010.61 1011.00 1011.30 1011.53 1011.78 1012.13 1012.24 1012.38 1012.46 1012.67 1013.00 1012.60 1012.55 1013.02 1013.68 1014.13 1014.28 1014.49 1014.88 1014.83 1014.95
1000.03 1000.64 1001.39 1002.04 1002.79 1003.61 1004.04 1004.80 1005.79 1006.30 1006.44 1006.62 1006.73 1006.95 1006.98 1007.48 1008.28 1008.60 1009.10 1009.39 1009.40 1009.66 1010.11 1010.41 1010.51 1011.05 1011.52 1011.86 1012.06 1012.15 1012.26 1012.06 1012.40 1012.49 1012.77 1013.14 1013.36 1013.97 1014.40 1014.67 1014.78 1015.17 1015.05
999.55 1000.08 1000.78 1001.59 1002.21 1002.79 1003.57 1004.30 1005.01 1005.75 1005.98 1006.40 1006.62 1006.77 1006.88 1006.97 1007.63 1008.19 1008.58 1008.98 1009.04 1009.13 1009.41 1009.84 1010.36 1010.47 1010.61 1010.86 1011.27 1011.50 1011.67 1011.86 1012.11 1012.35 1012.60 1013.26 1014.01 1014.23 1014.73 1015.02 1015.16 1015.33 1015.37
999.47 999.90 1000.37 1000.93 1001.43 1002.15 1003.16 1003.95 1004.42 1004.81 1005.42 1005.72 1006.32 1006.84 1006.82 1006.70 1006.87 1007.34 1007.98 1008.36 1008.83 1009.14 1009.22 1009.35 1009.47 1009.87 1010.26 1010.55 1010.77 1011.03 1011.30 1011.65 1011.95 1012.14 1012.44 1013.14 1013.72 1014.31 1014.63 1014.93 1015.21 1015.25 1015.04
999.62 1000.00 1000.22 1000.43 1001.14 1002.01 1003.16 1003.81 1004.11 1004.40 1004.82 1005.47 1005.79 1006.42 1006.82 1006.69 1006.56 1007.12 1007.49 1007.88 1008.31 1008.72 1009.12 1009.42 1009.30 1009.23 1009.74 1009.92 1009.96 1010.30 1010.63 1011.13 1011.07 1011.38 1012.01 1012.73 1013.23 1013.86 1014.20 1014.52 1014.77 1014.97 1014.90
1001.89 1002.16 1001.58 1002.57 1002.60 1002.44 1002.05 1003.36 1003.95 1003.73 1004.57 1005.34 1005.24 1005.74 1006.62 1006.41 1006.25 1006.81 1007.21 1007.10 1007.50 1007.89 1008.06 1008.35 1008.68 1009.13 1009.48 1009.84 1010.22 1010.49 1010.84 1010.82 1010.87 1011.06 1011.77 1012.10 1012.48 1012.93 1013.61 1013.91 1014.28 1014.59 1014.58
1000.55 1000.97 1001.82 1002.95 1004.04 1003.06 1002.85 1001.96 1003.53 1003.51 1004.08 1004.68 1005.22 1005.29 1005.72 1006.62 1006.87 1007.03 1007.44 1007.54 1007.25 1007.18 1007.46 1007.66 1008.01 1007.87 1008.42 1008.89 1009.66 1010.16 1010.54 1010.82 1010.85 1010.92 1011.14 1011.03 1011.25 1012.12 1012.82 1013.24 1013.50 1013.72 1013.59
1003.58 1003.16 1004.24 1005.10 1004.69 1002.63 1002.12 1002.28 1003.24 1003.66 1003.75 1004.24 1004.52 1005.16 1005.19 1006.00 1006.97 1007.08 1007.34 1007.66 1007.47 1007.27 1007.09 1007.20 1007.46 1007.91 1008.09 1008.46 1008.96 1009.50 1009.71 1009.98 1010.36 1010.60 1010.74 1010.46 1010.48 1011.02 1011.85 1012.12 1012.54 1012.97 1013.30
1003.45 1003.66 1004.06 1004.10 1003.03 1002.46 1002.74 1003.02 1003.12 1003.69 1003.60 1004.21 1004.54 1004.70 1005.18 1005.29 1006.51 1006.81 1007.31 1007.13 1007.14 1006.97 1006.94 1006.94 1007.17 1007.41 1007.75 1008.25 1008.62 1008.83 1008.84 1009.10 1009.79 1010.26 1010.38 1010.36 1010.41 1010.53 1010.99 1011.80 1012.03 1012.31 1012.59
1004.48 1004.76 1005.36 1004.57 1004.24 1003.52 1003.20 1003.30 1003.16 1003.54 1003.51 1004.02 1004.34 1004.58 1005.11 1005.29 1006.53 1006.74 1007.00 1006.38 1006.23 1006.22 1006.13 1006.47 1006.77 1006.98 1007.32 1007.88 1008.36 1008.67 1008.37 1008.70 1009.38 1009.97 1010.47 1010.75 1010.71 1010.67 1010.99 1011.40 1011.57 1011.54 1011.59
1005.00 1005.21 1005.42 1005.24 1005.03 1004.79 1004.41 1003.98 1003.82 1003.39 1003.00 1003.43 1003.99 1004.40 1005.02 1005.09 1005.91 1006.60 1006.80 1006.23 1005.77 1005.43 1005.38 1005.34 1005.59 1006.03 1006.43 1007.20 1007.88 1008.03 1007.97 1008.04 1008.55 1008.86 1009.18 1009.56 1009.81 1010.11 1010.54 1010.84 1010.68 1010.63 1010.86
1006.02 1005.97 1005.74 1005.36 1005.17 1005.09 1005.25 1004.31 999.03 1003.31 1003.82 1003.77 1004.05 1004.54 1004.74 1004.68 1005.35 1006.19 1006.27 1006.23 1006.12 1005.98 1005.71 1005.47 1005.47 1005.99 1006.39 1006.59 1006.85 1007.28 1007.92 1007.99 1007.82 1007.88 1008.14 1008.33 1008.60 1008.70 1009.25 1009.63 1009.92 1010.01 1009.73
1006.16 1006.24 1006.30 1006.55 1006.33 1005.71 1005.49 1004.96 1004.10 1004.98 1003.88 1003.49 1003.89 1004.16 1004.07 1004.14 1004.89 1005.55 1005.98 1006.00 1006.09 1006.18 1005.66 1005.40 1005.82 1006.42 1006.65 1007.16 1006.76 1006.29 1006.93 1007.41 1007.12 1007.20 1006.87 1007.32 1007.66 1007.78 1008.23 1008.53 1009.15 1009.50 1009.58
1006.64 1006.31 1006.20 1006.17 1006.28 1006.12 1005.66 1006.16 1005.92 1005.91 1004.61 1003.94 1005.43 1004.90 1005.10 1005.74 1005.90 1005.46 1006.47 1006.27 1006.02 1005.98 1005.75 1005.66 1005.57 1005.90 1006.14 1006.08 1006.34 1006.85 1006.18 1006.10 1006.52 1006.09 1006.36 1006.43 1006.73 1007.26 1007.75 1007.86 1008.32 1008.91 1009.11
1007.01 1006.79 1006.71 1006.88 1006.53 1006.26 1006.22 1006.33 1006.12 1005.99 1005.49 1005.79 1005.95 1006.18 1006.25 1006.31 1006.30 1007.15 1007.42 1006.61 1006.20 1006.09 1006.46 1005.77 1005.71 1005.61 1005.48 1005.54 1005.59 1005.59 1005.34 1005.60 1005.89 1005.52 1005.78 1006.14 1006.55 1006.79 1007.22 1007.50 1007.70 1008.42 1008.52
1006.66 1006.34 1006.61 1006.89 1006.63 1006.41 1006.16 1006.69 1006.80 1006.24 1006.34 1006.39 1006.84 1007.14 1006.78 1006.86 1006.81 1006.86 1006.76 1006.45 1006.24 1006.23 1006.34 1005.59 1005.22 1005.14 1004.86 1004.71 1004.54 1004.21 1004.71 1005.03 1005.01 1005.61 1005.97 1006.24 1006.44 1006.77 1007.04 1007.24 1007.29 1007.85 1008.03
1006.81 1006.84 1006.75 1006.49 1006.20 1006.15 1005.96 1005.82 1005.69 1006.81 1006.61 1006.62 1006.78 1006.70 1006.78 1006.37 1006.44 1006.65 1006.15 1005.65 1005.48 1005.72 1005.43 1004.36 1004.42 1004.42 1004.36 1004.54 1004.42 1004.26 1004.50 1004.78 1005.14 1005.59 1005.92 1006.47 1006.80 1006.79 1006.88 1007.10 1007.47 1007.68 1008.24
1006.86 1006.78 1006.38 1005.93 1005.57 1005.53 1004.98 1004.79 1004.56 1004.63 1005.02 1005.76 1006.21 1006.15 1006.19 1005.99 1006.24 1006.22 1005.83 1005.46 1005.26 1005.18 1004.83 1004.20 1003.92 1003.93 1003.92 1003.92 1004.00 1004.22 1004.57 1004.98 1005.64 1005.89 1006.20 1006.16 1006.81 1007.36 1006.97 1006.47 1006.96 1007.70 1008.10
1006.75 1006.02 1005.80 1005.79 1005.70 1005.36 1005.16 1004.86 1004.24 1004.03 1004.10 1004.59 1004.83 1005.64 1005.34 1005.33 1005.66 1005.99 1005.81 1005.54 1005.28 1004.58 1003.93 1004.10 1004.35 1004.24 1003.98 1004.07 1004.17 1004.19 1004.61 1004.97 1005.33 1005.76 1006.33 1006.79 1007.24 1007.48 1007.57 1007.53 1007.76 1007.69 1008.75
1006.21 1005.87 1006.01 1005.80 1005.18 1004.51 1004.15 1003.68 1003.49 1003.24 1003.46 1003.45 1004.59 1004.95 1004.68 1004.52 1005.12 1005.29 1005.57 1005.46 1005.18 1004.82 1004.65 1004.63 1004.51 1004.49 1004.42 1003.97 1004.01 1004.26 1004.55 1005.05 1005.36 1006.02 1006.20 1006.80 1007.01 1007.65 1007.81 1007.85 1008.33 1008.77 1009.19
1005.89 1005.47 1005.55 1005.20 1004.47 1004.03 1003.66 1003.50 1003.25 1002.97 1002.84 1003.14 1004.91 1006.09 1006.81 1006.18 1005.73 1005.98 1006.29 1005.98 1005.70 1005.73 1005.59 1005.59 1005.31 1005.17 1004.98 1004.98 1004.99 1004.95 1004.99 1005.37 1005.79 1006.23 1006.32 1007.05 1007.52 1007.50 1008.03 1008.49 1008.78 1009.00 1009.46
1006.17 1005.25 1004.82 1004.78 1004.65 1004.34 1003.92 1003.56 1003.25 1002.90 1002.44 1003.16 1005.07 1005.85 1006.09 1005.94 1006.32 1006.66 1006.63 1006.70 1006.66 1006.64 1006.49 1006.50 1006.25 1006.12 1006.00 1005.74 1005.60 1005.58 1005.73 1006.01 1006.53 1007.23 1007.03 1007.54 1007.95 1008.14 1008.05 1008.49 1009.17 1009.35 1009.63
1005.29 1005.76 1005.84 1005.51 1005.31 1004.83 1004.33 1004.21 1003.73 1003.72 1003.77 1004.01 1004.70 1005.21 1005.29 1005.61 1006.39 1006.96 1007.08 1007.14 1007.02 1006.72 1006.85 1006.78 1006.39 1006.21 1006.20 1006.23 1006.53 1006.71 1006.23 1006.39 1006.83 1007.36 1007.57 1007.58 1007.85 1007.94 1008.09 1008.74 1009.14 1009.27 1009.41
1004.85 1005.09 1005.40 1005.14 1005.27 1004.65 1004.27 1004.17 1004.59 1004.58 1004.66 1004.83 1004.85 1005.13 1005.44 1005.98 1006.76 1007.44 1007.46 1007.48 1007.35 1007.08 1006.43 1006.53 1006.50 1006.31 1006.20 1006.17 1006.12 1006.14 1006.46 1006.44 1006.34 1007.12 1007.34 1007.35 1007.84 1007.90 1008.01 1008.54 1008.87 1009.04 1009.36
1005.17 1005.50 1005.26 1005.29 1005.38 1005.42 1005.57 1005.45 1005.47 1005.63 1005.61 1005.34 1005.31 1005.42 1005.78 1006.09 1006.05 1006.30 1006.94 1007.21 1006.90 1007.22 1007.29 1007.06 1006.59 1006.79 1006.83 1006.53 1006.98 1007.15 1007.76 1007.50 1006.97 1007.28 1006.88 1007.03 1007.53 1007.60 1007.83 1008.03 1008.59 1008.91 1009.14
1004.60 1004.78 1004.97 1005.27 1005.28 1005.33 1005.40 1005.73 1006.04 1006.01 1005.84 1005.98 1005.89 1006.12 1006.30 1006.11 1006.07 1006.30 1006.46 1006.56 1006.64 1006.77 1007.36 1007.47 1007.08 1007.09 1007.11 1007.62 1008.51 1008.63 1008.28 1008.19 1007.78 1007.83 1007.24 1007.26 1007.65 1007.64 1007.67 1007.93 1008.63 1008.83 1009.27
Wind_Speed
19 18 16 15 15 14 11 11 10 10 10 9 8 7 8 8 8 7 8 9 9 7 8 8 5 4 4 6 6 5 6 6 7 5 2 5 7 7 5 4 5 3 4
18 17 17 17 16 15 12 13 11 10 9 9 9 8 8 8 8 8 8 9 10 9 8 8 9 8 9 6 4 6 8 8 7 10 5 5 6 7 5 6 3 2 1
18 19 18 18 17 15 14 14 12 11 10 9 7 7 7 7 7 7 7 7 8 9 8 8 8 8 7 7 8 8 7 5 6 7 4 2 2 2 3 2 3 3 1
18 19 17 18 17 14 13 12 12 12 10 8 7 7 8 8 8 7 6 3 5 5 7 9 10 10 10 9 7 8 6 5 6 6 5 4 3 2 2 3 3 4 3
11 13 15 15 15 13 12 11 11 11 10 9 8 8 9 8 8 9 8 5 6 6 6 7 9 7 5 3 7 7 6 7 8 8 2 3 4 3 6 4 4 5 6
5 2 7 7 11 11 15 13 11 11 9 9 9 9 9 9 12 10 3 7 9 9 7 7 8 6 5 6 3 1 2 6 8 6 6 5 6 4 5 6 5 4 3
9 7 6 9 7 9 11 13 13 11 10 10 9 10 9 10 8 10 7 9 8 8 8 8 9 10 12 10 9 5 5 6 5 6 7 9 8 9 9 9 8 9 6
4 10 19 18 18 13 12 12 11 10 10 10 10 10 9 8 11 10 9 9 10 11 10 9 10 10 9 9 9 10 10 11 10 9 10 9 7 11 12 11 11 10 3
8 4 7 8 8 8 11 11 11 11 9 7 7 8 9 9 12 13 10 9 11 12 11 11 11 11 10 11 10 11 10 9 8 9 4 4 3 10 10 7 7 8 5
12 10 6 9 12 9 9 10 9 9 9 7 9 9 10 10 12 12 12 9 11 10 11 12 12 13 3 15 12 11 11 10 10 10 7 4 5 6 11 10 8 9 6
12 12 12 11 10 10 13 9 8 9 6 6 5 5 8 7 8 11 12 11 10 10 10 9 10 17 16 17 14 12 13 10 12 10 9 9 10 8 10 11 9 11 9
10 12 12 12 10 8 8 16 3 5 3 2 3 3 6 7 12 14 16 16 12 11 13 12 12 5 13 17 16 14 9 9 9 9 9 10 10 9 10 12 12 10 9
7 9 8 6 4 7 7 9 12 5 2 2 3 5 6 5 6 9 12 13 15 11 12 12 9 2 8 8 16 17 13 11 11 10 10 9 11 11 11 11 12 11 10
6 6 6 6 6 5 4 0 1 5 4 7 3 4 6 7 8 5 7 5 10 6 10 11 10 11 9 9 10 12 11 12 12 12 10 9 6 7 9 9 10 9 10
4 5 5 1 3 5 3 6 6 4 6 5 4 3 5 6 6 10 8 8 8 4 10 5 7 8 8 8 8 10 9 11 13 11 6 7 8 8 7 9 8 8 10
5 4 3 3 2 2 4 4 7 4 9 8 5 4 2 5 11 13 14 14 13 8 4 5 6 6 7 8 9 8 10 12 10 9 8 7 8 8 7 3 5 7 9
6 4 5 5 4 5 5 5 5 1 7 9 13 14 13 12 13 13 15 12 9 6 5 9 7 6 6 4 5 5 3 2 2 2 1 1 3 2 5 4 3 3 5
8 9 6 7 5 5 7 6 6 7 2 1 13 11 12 13 8 9 7 5 4 3 4 6 5 6 6 6 7 8 5 4 3 3 2 2 2 2 3 5 6 5 7
10 8 7 7 8 6 7 8 8 7 3 2 5 5 9 8 9 7 4 2 5 8 3 4 2 4 3 2 2 3 5 4 4 3 3 3 4 3 3 3 3 8 6
9 8 5 8 8 9 8 7 7 6 7 3 4 5 7 8 4 8 6 6 6 5 3 3 2 2 3 2 2 3 5 4 5 4 4 4 4 5 5 6 6 5 5
7 7 9 7 8 8 7 7 7 6 6 2 4 7 4 5 5 7 7 7 6 6 7 6 5 4 4 6 5 5 5 6 6 5 6 5 4 7 7 5 6 7 7
6 8 7 9 10 8 5 7 8 7 5 8 2 7 1 5 5 5 5 6 6 7 5 5 5 6 5 5 6 6 7 7 7 5 6 5 5 5 6 8 6 6 7
5 6 4 6 7 10 4 6 5 5 7 4 2 4 4 7 7 5 5 4 3 3 3 4 3 6 4 5 5 4 6 5 4 3 3 6 6 5 6 5 6 7 7
2 5 6 3 4 8 8 7 6 6 5 2 1 2 6 6 5 5 4 3 4 4 4 4 4 6 6 5 4 7 5 5 5 7 9 7 7 7 7 6 7 7 6
7 5 5 5 6 5 5 5 4 4 4 3 2 3 5 6 6 5 5 3 2 3 4 6 5 5 5 7 8 10 9 9 6 5 6 7 6 8 6 7 8 6 7
4 2 4 2 1 2 1 2 2 2 2 3 3 2 1 1 2 2 2 3 4 4 3 3 3 7 7 9 8 7 7 9 6 8 5 5 6 5 5 6 8 6 6
Wind_Direction
191 186 187 188 190 199 187 188 193 176 187 202 206 206 215 195 212 237 242 238 233 223 221 203 211 204 257 230 220 230 237 231 240 252 43 160 169 196 188 205 175 202 154
186 183 184 185 187 185 184 179 195 197 196 205 203 203 211 195 199 230 233 226 224 218 216 228 221 207 216 219 221 228 231 209 232 246 220 179 196 184 180 188 154 127 111
186 184 185 182 180 177 180 181 183 191 194 217 217 219 212 211 173 193 230 234 229 220 212 208 222 225 220 232 231 223 231 233 231 241 221 118 102 118 130 133 165 186 179
189 187 179 179 174 163 175 179 183 183 199 198 210 224 219 209 208 194 205 216 276 259 233 228 216 215 223 221 226 235 238 233 227 231 231 169 163 143 147 162 170 212 216
194 188 176 162 152 151 172 179 188 192 195 195 193 215 228 217 208 190 219 200 211 234 249 236 236 227 75 208 233 215 235 233 232 230 189 173 166 158 186 166 185 193 204
8 29 90 115 152 164 162 182 196 186 191 202 192 201 227 239 125 128 219 215 205 209 231 245 259 175 186 168 222 138 317 259 247 229 210 213 198 177 173 177 173 170 194
46 355 55 53 273 216 188 169 195 184 183 194 209 203 209 239 150 155 170 237 260 236 225 236 246 246 203 228 197 194 228 236 249 253 230 229 217 186 178 177 184 187 203
229 160 172 213 227 198 186 178 194 194 181 193 198 213 206 222 171 164 169 228 238 250 262 255 243 262 268 219 235 205 224 219 220 222 235 250 243 174 190 187 178 183 184
72 14 329 312 241 209 200 197 196 200 188 191 204 211 228 220 183 176 179 214 234 243 250 248 251 244 235 178 222 244 228 219 139 124 89 47 74 156 181 168 166 166 176
44 42 352 356 345 260 226 210 206 207 191 197 208 218 222 229 185 183 199 230 233 239 228 232 231 239 225 176 209 233 244 210 232 188 185 187 202 179 172 188 176 188 178
36 33 41 32 19 6 341 262 223 204 169 171 219 231 239 226 237 195 206 243 255 250 258 250 246 206 197 185 207 224 240 218 220 218 212 214 200 191 200 210 212 199 197
63 44 32 24 15 20 7 14 161 100 127 128 254 273 258 218 222 196 194 210 243 253 261 262 258 303 217 194 190 214 235 229 227 208 215 212 217 207 204 195 216 217 213
66 63 36 17 15 6 10 44 333 270 204 207 283 265 256 273 291 192 203 217 231 243 260 275 330 152 215 245 230 198 196 227 235 219 213 214 211 221 206 190 196 208 224
55 58 28 10 343 0 40 233 227 301 2 36 312 339 333 317 299 328 3 344 258 239 257 263 284 291 305 233 224 239 217 212 226 237 218 219 219 210 198 189 194 192 216
39 67 57 115 318 331 35 6 353 7 13 358 10 330 311 304 335 337 310 305 297 326 328 293 273 265 258 238 228 222 199 219 229 235 238 218 221 225 195 192 190 196 213
338 33 26 317 277 260 279 184 251 174 178 178 198 253 313 262 276 284 285 280 263 243 248 244 242 235 246 239 224 202 193 217 223 232 240 236 229 219 218 193 181 196 206
335 316 318 280 268 262 239 263 280 184 249 229 220 207 216 267 287 289 292 290 265 175 209 238 241 232 247 222 247 198 173 183 86 120 184 302 297 273 194 187 166 152 249
309 270 259 276 293 288 292 314 291 289 287 143 231 232 220 235 249 300 356 351 253 196 250 268 303 242 222 205 210 226 197 164 185 189 194 179 153 299 265 187 194 192 142
301 300 317 326 308 310 285 261 264 272 233 234 312 196 224 220 199 226 144 322 316 330 289 248 337 315 256 252 188 165 179 171 163 159 143 133 126 124 117 84 45 89 45
289 253 259 293 288 287 287 284 296 308 302 313 345 322 349 329 0 16 16 9 9 357 1 11 26 5 3 342 165 134 108 105 114 119 139 144 154 146 127 109 103 92 92
287 292 224 278 259 263 299 303 287 273 272 36 35 62 14 330 10 38 18 13 39 30 19 17 11 46 51 52 56 76 84 98 101 107 109 104 125 123 112 96 117 121 117
304 300 339 342 336 295 304 311 315 300 296 67 295 102 150 60 58 61 50 36 27 22 29 33 33 35 32 53 70 74 85 84 77 77 91 94 102 111 123 123 136 138 143
335 354 307 320 324 308 351 344 324 27 17 62 294 88 115 84 65 41 46 71 74 64 5 327 24 109 121 95 91 89 96 98 113 130 122 138 139 132 126 138 153 153 161
285 32 327 317 12 331 353 348 2 349 339 286 178 202 111 88 95 104 96 90 50 10 45 40 29 40 60 81 113 134 113 111 135 159 163 153 152 157 154 158 179 163 138
25 16 329 7 12 1 353 347 356 345 330 293 179 182 149 160 174 140 145 163 116 84 39 6 7 102 83 56 46 66 37 26 54 342 181 150 165 156 159 166 161 173 149
322 173 197 244 39 277 31 31 343 328 334 320 228 170 183 199 125 174 183 210 141 118 124 163 170 123 125 84 60 41 32 22 31 356 319 149 167 182 161 143 169 169 163